2022-050D

Last updated on Fri May 20 2022 00:02:04 GMT+0000 (Coordinated Universal Time)

1 52512U 22050D 22139.11242646 .00944537 75967-5 53409-3 0 9992 2 52512 41.4917 31.6421 0066101 259.3509 99.9895 16.12925197 1482

Satellite not in orbit